SCP
0 0 0 0 0 0 0 0 0 0 0 0 0 0 0 0 0 0 0 0 0 0 0 0 0 0 0 0 0 0 0 0 0 0 0 0 0 0 0 0 0 0 0 0
0 0 0 0 0 0 0 0 0 0 1 0 0 0 0 0 0 0 0 0 0 0 0 0 0 0 0 0 0 0 0 0 0 0 0 0 0 0 0 0 0 0 0 0
0 0 0 0 0 0 0 0 0 0 1 0 0 0 0 0 0 0 0 0 0 0 0 0 0 0 0 0 0 0 0 0 0 0 0 0 0 0 0 0 0 0 0 0
0 0 0 0 0 0 0 0 0 0 0 0 0 0 0 0 0 0 0 0 0 0 0 0 0 0 0 0 0 0 0 0 0 0 0 0 0 0 0 0 0 0 0 0
0 0 0 0 0 0 0 0 0 0 0 0 0 0 0 0 0 0 0 0 0 0 0 0 0 0 0 0 0 0 0 0 0 0 0 0 0 0 0 0 0 0 0 0
0 0 0 0 0 0 0 0 0 0 0 0 0 0 0 -0 -0 0 0 0 0 0 0 0 0 0 0 0 0 0 0 0 0 0 0 0 0 0 0 0 0 0 0 0
0 0 0 0 0 0 0 0 0 0 0 0 0 0 -0 0 0 -0 0 0 0 0 0 0 0 0 0 0 0 0 0 0 0 0 0 0 0 0 0 0 0 0 0 0
0 0 0 0 0 0 0 0 0 0 0 0 0 0 0 0 0 0 0 0 0 0 0 0 0 0 0 0 0 0 0 0 0 0 0 0 0 0 0 0 0 0 0 0
0 0 0 0 0 0 0 -0 0 0 0 0 0 0 0 0 0 0 0 0 0 0 -0 0 0 0 0 0 0 0 0 0 0 0 0 0 0 0 0 0 0 0 0 0
0 0 0 0 0 0 0 -0 0 0 0 0 0 0 0 0 0 0 0 0 0 0 0 0 0 0 -0 0 0 0 0 0 0 0 0 0 0 0 0 0 0 0 0 0
0 0 0 0 0 0 0 0 0 0 0 -0 0 0 0 0 0 0 0 0 0 0 0 0 0 -0 -0 -0 0 0 0 0 0 0 0 0 0 0 0 0 0 0 0 0
0 0 0 0 0 0 0 0 0 0 0 0 0 0 0 0 0 0 0 0 0 0 0 0 0 0 0 0 0 0 0 0 0 0 0 0 0 0 0 0 0 0 0 0
0 0 0 0 0 0 0 0 0 0 -0 0 0 0 0 0 0 0 0 0 0 0 0 0 0 0 0 0 0 0 0 0 0 0 0 0 0 0 0 0 0 0 0 0
0 0 0 0 0 0 0 0 0 0 0 -0 0 0 0 0 0 0 0 0 0 0 0 0 0 0 0 0 0 0 0 0 0 0 0 0 0 0 0 0 0 0 0 0
0 0 0 0 0 0 0 0 0 0 0 0 0 0 0 0 0 0 0 0 0 0 0 0 0 0 0 0 0 0 0 0 0 0 0 0 0 0 0 0 0 0 0 0
0 0 0 0 0 0 0 0 0 0 0 0 -0 0 0 0 0 0 0 0 0 0 0 0 0 0 0 0 0 0 0 0 0 0 0 0 0 0 0 0 0 0 0 0
0 0 0 0 0 0 0 0 0 0 0 0 -0 0 0 0 0 0 0 0 0 0 0 0 0 0 0 0 0 0 0 0 0 0 0 0 0 0 0 0 0 0 0 0
0 0 0 0 0 0 0 0 0 0 0 0 0 0 0 0 0 0 0 0 0 0 0 0 0 0 0 0 0 0 0 0 0 0 0 0 0 0 0 0 0 0 0 0
0 0 0 0 0 0 0 0 0 -0 0 0 0 0 0 0 0 0 0 0 0 0 0 0 0 0 0 0 0 0 0 0 0 0 0 0 0 0 0 0 0 0 0 0
0 0 0 0 0 0 0 0 0 -0 -0 0 0 0 0 0 0 0 0 0 0 0 0 0 0 0 0 0 0 0 0 0 0 0 0 0 0 0 0 0 0 0 0 0
0 0 0 0 0 0 0 0 0 0 -0 -0 0 0 0 0 0 0 0 0 0 0 0 0 0 0 0 0 0 0 0 0 0 0 0 0 0 0 0 0 0 0 0 0
0 0 0 0 -0 0 0 0 0 0 0 0 0 0 0 0 0 0 0 0 0 0 0 0 0 0 0 0 0 0 0 0 0 0 0 0 0 0 0 0 0 0 0 0
0 0 -0 -0 0 0 0 0 0 0 -0 0 0 0 0 0 0 0 0 0 0 0 0 0 0 0 0 0 0 0 0 0 0 0 0 0 0 0 0 0 0 0 0 0
0 0 -0 0 0 0 0 0 0 0 0 0 0 0 0 0 0 0 0 0 0 0 0 0 0 0 0 0 0 0 0 0 0 0 0 0 0 0 0 0 0 0 0 0
0 0 0 0 0 0 0 0 0 0 0 0 0 0 0 0 0 0 0 0 0 0 0 0 0 0 0 0 0 0 0 0 0 0 0 0 0 0 0 0 0 0 0 0
0 0 0 0 0 0 0 0 0 0 0 0 0 0 0 0 0 0 0 0 0 0 0 0 0 0 0 0 0 0 0 0 0 0 0 0 0 0 0 0 0 0 0 0
0 0 0 0 0 0 0 0 0 0 0 0 0 0 0 0 0 0 0 0 0 0 0 0 0 0 0 0 0 0 0 0 0 0 0 0 0 0 0 0 0 0 0 0
Wind_Speed_500mb
48 47 39 37 38 29 29 29 11 21 45 35 13 32 27 31 19 34 7 5 34 25 21 21 21 32 17 37 30 24 19 5 10 18 6 5 2 7 14 9 13 11 5 35
45 46 45 38 33 24 29 23 38 32 52 24 33 16 38 39 17 32 18 21 15 10 20 12 24 15 19 37 24 22 18 7 3 10 8 4 11 15 33 3 6 31 10 25
40 41 48 47 42 28 41 23 8 39 49 65 36 48 32 56 50 33 35 28 13 24 27 16 10 14 14 46 38 41 41 11 21 32 12 13 14 20 25 35 20 20 39 42
46 43 43 48 53 40 44 34 12 19 12 30 38 45 28 56 36 45 57 27 41 45 27 34 50 45 14 14 29 26 28 27 35 51 14 11 10 31 44 49 65 22 68 41
47 50 47 43 46 48 54 23 22 21 33 19 16 47 33 13 48 37 36 41 50 47 48 45 42 39 31 29 9 24 7 30 35 47 39 18 22 22 50 57 60 52 64 62
48 51 50 50 57 57 41 60 69 29 30 22 19 11 24 40 44 27 45 50 48 47 52 65 64 15 33 16 34 29 17 26 23 39 28 7 12 77 25 29 41 38 46 78
47 46 49 45 55 67 59 54 45 31 20 18 28 11 9 21 32 32 13 36 27 77 33 39 59 48 23 18 17 30 13 32 20 22 12 25 49 27 50 51 49 40 49 59
48 50 54 50 55 55 65 44 64 27 18 22 35 37 27 27 30 17 22 28 31 38 23 4 7 18 8 29 40 33 33 26 14 17 30 20 34 13 18 22 53 59 54 60
50 49 51 52 57 57 54 53 50 54 10 18 50 23 41 28 14 6 13 15 20 30 8 8 11 8 8 17 11 43 38 34 24 9 17 23 54 15 48 14 34 24 47 61
54 52 49 53 52 53 51 59 21 38 17 39 18 20 24 26 22 6 5 9 10 31 10 9 9 13 16 7 10 9 30 32 41 36 24 12 11 11 39 20 21 6 17 42
54 51 52 53 50 48 46 58 51 36 9 28 35 53 36 26 36 21 16 13 7 3 11 10 7 9 10 7 10 15 19 18 21 20 21 30 10 4 26 10 7 8 4 8
54 51 49 48 53 47 45 61 53 43 39 26 37 64 71 48 51 46 36 7 11 22 11 8 5 6 7 13 10 3 12 14 9 14 10 5 8 6 9 11 15 11 10 7
51 49 46 47 47 47 47 58 55 45 33 46 45 50 70 60 60 45 17 17 17 12 14 5 5 8 8 13 11 6 8 8 7 4 9 7 5 9 12 22 27 24 21 15
51 46 44 43 47 49 49 51 52 47 21 6 12 45 45 57 63 63 53 31 28 20 17 7 4 6 9 6 5 7 5 14 11 6 7 4 21 23 23 19 16 17 19 11
47 45 43 43 47 45 46 50 57 56 41 6 10 23 49 51 52 53 56 50 33 18 7 6 7 3 6 2 3 3 10 11 8 8 16 7 9 56 41 22 17 13 8 9
49 48 45 40 36 36 37 34 57 69 52 11 4 16 24 36 42 47 43 46 38 19 14 5 7 9 6 6 7 4 21 14 3 0 25 18 18 25 43 36 22 14 11 11
42 46 43 40 44 44 51 18 15 28 62 17 4 4 11 29 28 24 22 30 14 13 14 8 7 8 16 5 6 4 13 12 7 5 23 6 8 11 25 27 22 14 13 16
43 41 41 44 51 53 64 73 56 25 34 26 9 5 8 33 12 8 14 11 11 6 7 8 5 5 2 4 7 11 21 23 16 13 14 21 25 25 26 27 24 21 20 20
37 34 31 32 44 52 69 60 60 62 37 7 10 15 11 30 11 11 9 7 3 1 2 2 8 4 6 4 7 10 10 9 16 28 33 38 39 42 40 37 35 34 32 25
32 27 14 12 19 49 20 26 18 26 32 29 4 15 9 25 12 2 5 5 5 3 5 10 1 3 11 9 11 11 9 8 19 32 30 32 34 32 30 27 25 23 20 18
28 18 15 12 8 33 22 16 15 15 10 25 19 18 12 23 7 7 5 7 2 6 8 10 2 5 8 8 9 7 10 12 19 25 25 24 24 25 21 19 17 16 15 12
14 7 14 15 10 19 14 11 12 9 12 12 16 14 17 15 13 8 5 6 5 8 8 7 4 3 10 13 9 8 10 14 18 22 21 20 19 18 16 13 10 8 7 6
15 7 8 12 14 9 16 17 7 9 8 15 18 12 16 11 7 6 6 8 9 11 5 8 5 14 12 11 13 11 14 16 16 19 18 17 16 16 13 12 11 9 7 5
13 12 9 8 7 7 3 6 7 1 5 22 50 7 8 9 5 6 10 5 7 5 7 11 4 12 11 12 16 18 20 21 22 24 24 23 22 22 21 18 15 12 8 5
11 9 9 5 7 5 12 16 8 18 3 43 20 10 8 5 8 5 8 6 7 11 10 3 12 14 14 17 22 24 25 27 29 31 31 31 29 28 29 27 25 21 18 15
4 11 5 10 4 6 17 23 6 28 15 16 10 6 7 5 9 8 5 17 15 7 4 13 21 18 18 20 23 26 29 31 34 35 35 37 35 33 34 34 30 28 24 21
10 5 17 14 14 8 7 21 29 30 18 3 4 7 5 7 7 6 7 3 1 15 25 23 21 22 25 27 30 33 35 37 38 39 38 39 38 35 32 31 32 27 24 20
Wind_Direction_500mb
268 261 256 255 273 274 250 245 234 248 200 194 235 221 206 201 184 224 232 239 211 191 179 189 204 207 209 192 149 183 204 174 203 201 218 238 303 249 177 154 215 239 220 256
262 259 259 256 259 242 239 244 243 249 207 218 222 224 229 225 178 207 185 217 215 163 181 206 212 202 205 186 165 167 164 210 16 323 351 345 217 213 207 74 67 231 187 252
268 261 254 260 244 262 224 246 251 225 227 240 229 222 229 224 213 208 215 213 178 211 231 220 245 221 201 204 208 196 168 162 206 233 230 144 201 199 202 209 232 225 238 259
269 265 255 251 245 233 223 232 242 232 200 231 233 244 245 225 224 210 205 232 211 222 214 218 234 240 195 223 224 198 175 216 224 242 237 196 213 207 204 209 227 204 253 245
251 258 254 243 245 232 224 238 227 246 244 273 229 242 234 238 234 210 213 219 216 218 219 211 224 215 206 210 183 197 211 228 229 255 241 206 233 224 221 214 227 231 252 261
259 252 244 249 250 231 232 228 247 267 245 230 249 233 253 238 240 264 256 232 223 224 227 229 238 245 230 225 210 196 172 215 217 238 228 176 262 240 190 214 225 222 239 249
255 259 251 244 245 249 240 228 237 241 253 216 227 239 227 253 196 210 216 229 240 226 221 255 254 244 223 173 205 210 185 217 215 245 146 221 241 256 225 227 237 226 246 256
251 254 245 248 250 248 244 286 228 235 249 230 242 237 236 264 280 278 284 254 237 264 282 209 228 219 215 224 210 198 208 198 219 221 226 268 288 193 157 183 245 234 239 255
245 249 253 242 249 252 253 259 243 235 251 238 229 219 220 231 237 272 208 226 213 205 185 192 195 212 174 196 198 202 197 204 208 175 225 224 246 179 181 126 251 202 214 241
243 250 249 244 247 246 260 261 258 230 237 237 250 211 222 204 200 178 143 178 187 195 192 227 201 226 172 230 215 167 201 203 216 222 239 256 247 197 142 165 245 44 217 230
239 243 247 247 246 246 247 258 258 249 264 257 228 225 213 189 207 207 158 135 201 174 212 202 182 208 200 171 182 170 192 198 210 221 233 241 145 93 181 259 29 45 311 272
236 243 245 246 240 244 246 257 257 273 249 263 238 227 225 221 217 209 179 181 170 181 195 202 147 163 166 185 218 268 197 204 192 202 216 23 350 45 39 46 74 43 42 39
231 237 240 243 242 239 237 247 255 262 290 288 265 233 226 227 228 220 187 220 189 210 208 182 187 201 139 170 228 123 228 178 189 121 195 204 181 130 96 92 80 69 74 70
225 233 238 241 246 241 236 245 247 241 246 246 254 218 212 227 229 229 232 231 203 213 205 214 213 202 184 200 178 156 181 142 159 277 263 246 212 188 153 121 89 78 75 71
220 229 237 245 239 242 244 244 247 247 218 315 299 246 221 220 216 220 221 226 211 179 172 218 208 173 122 2 80 247 187 162 177 227 196 168 186 194 185 179 138 116 127 126
226 229 234 236 238 239 245 255 250 237 233 224 245 240 207 201 200 211 214 216 212 202 171 198 210 187 143 154 187 261 187 186 162 92 169 99 75 174 192 200 183 146 113 120
236 233 233 237 238 238 225 210 227 208 216 212 253 286 214 182 167 177 183 191 184 195 165 181 167 194 188 164 169 15 152 162 177 50 163 112 87 150 184 193 174 162 121 110
232 234 238 239 236 237 241 233 227 250 195 187 191 200 190 170 161 142 162 154 162 148 148 144 153 139 186 177 85 77 95 113 120 100 122 135 128 133 140 149 157 169 154 148
225 233 238 244 230 227 232 236 239 248 236 266 133 178 192 166 138 133 140 150 100 46 149 177 150 158 196 109 88 82 78 99 106 101 119 127 118 114 114 122 124 127 126 132
214 213 206 245 216 227 223 225 220 216 211 200 240 170 166 156 134 128 91 107 157 136 243 128 60 153 101 89 110 135 135 125 152 134 114 123 119 119 122 123 126 132 143 151
185 187 214 239 263 187 193 205 202 206 197 171 159 204 138 176 128 148 171 155 166 135 238 138 226 266 151 142 152 146 141 129 140 154 146 140 135 135 135 131 133 140 149 159
183 191 285 279 237 199 196 199 199 206 206 147 153 169 137 146 144 106 164 122 65 191 152 92 224 153 122 161 160 148 143 138 140 143 143 144 148 150 151 153 158 163 167 170
223 216 219 210 220 239 163 180 228 154 179 155 150 142 131 125 132 73 125 117 198 122 83 203 204 127 141 150 156 144 144 141 138 139 145 147 152 154 157 157 155 149 151 163
201 189 231 232 240 257 296 166 161 116 217 157 151 119 126 128 93 141 118 191 109 95 173 230 133 150 140 138 148 146 143 143 146 144 140 141 140 141 138 135 130 119 120 127
227 179 220 224 273 307 354 342 348 14 197 149 129 82 97 126 114 107 114 118 183 200 213 152 129 141 137 133 138 142 140 138 138 134 135 132 129 129 127 121 116 114 115 115
146 44 14 345 86 24 11 1 5 16 348 168 106 126 137 128 132 131 163 141 198 182 141 127 135 126 122 124 129 130 131 133 131 129 129 127 126 128 127 124 124 123 122 124
42 26 44 11 57 59 43 3 344 355 345 236 119 113 63 86 84 101 9 131 286 123 113 122 126 122 117 120 124 125 128 129 129 128 127 127 124 122 123 126 118 116 113 108
Wind_Speed_850mb
48 47 39 37 38 29 29 29 11 21 45 35 13 32 27 31 19 34 7 5 34 25 21 21 21 32 17 37 30 24 19 5 10 18 6 5 2 7 14 9 13 11 5 35
45 46 45 38 33 24 29 23 38 32 52 24 33 16 38 39 17 32 18 21 15 10 20 12 24 15 19 37 24 22 18 7 3 10 8 4 11 15 33 3 6 31 10 25
40 41 48 47 42 28 41 23 8 39 49 65 36 48 32 56 50 33 35 28 13 24 27 16 10 14 14 46 38 41 41 11 21 32 12 13 14 20 25 35 20 20 39 42
46 43 43 48 53 40 44 34 12 19 12 30 38 45 28 56 36 45 57 27 41 45 27 34 50 45 14 14 29 26 28 27 35 51 14 11 10 31 44 49 65 22 68 41
47 50 47 43 46 48 54 23 22 21 33 19 16 47 33 13 48 37 36 41 50 47 48 45 42 39 31 29 9 24 7 30 35 47 39 18 22 22 50 57 60 52 64 62
48 51 50 50 57 57 41 60 69 29 30 22 19 11 24 40 44 27 45 50 48 47 52 65 64 15 33 16 34 29 17 26 23 39 28 7 12 77 25 29 41 38 46 78
47 46 49 45 55 67 59 54 45 31 20 18 28 11 9 21 32 32 13 36 27 77 33 39 59 48 23 18 17 30 13 32 20 22 12 25 49 27 50 51 49 40 49 59
48 50 54 50 55 55 65 44 64 27 18 22 35 37 27 27 30 17 22 28 31 38 23 4 7 18 8 29 40 33 33 26 14 17 30 20 34 13 18 22 53 59 54 60
50 49 51 52 57 57 54 53 50 54 10 18 50 23 41 28 14 6 13 15 20 30 8 8 11 8 8 17 11 43 38 34 24 9 17 23 54 15 48 14 34 24 47 61
54 52 49 53 52 53 51 59 21 38 17 39 18 20 24 26 22 6 5 9 10 31 10 9 9 13 16 7 10 9 30 32 41 36 24 12 11 11 39 20 21 6 17 42
54 51 52 53 50 48 46 58 51 36 9 28 35 53 36 26 36 21 16 13 7 3 11 10 7 9 10 7 10 15 19 18 21 20 21 30 10 4 26 10 7 8 4 8
54 51 49 48 53 47 45 61 53 43 39 26 37 64 71 48 51 46 36 7 11 22 11 8 5 6 7 13 10 3 12 14 9 14 10 5 8 6 9 11 15 11 10 7
51 49 46 47 47 47 47 58 55 45 33 46 45 50 70 60 60 45 17 17 17 12 14 5 5 8 8 13 11 6 8 8 7 4 9 7 5 9 12 22 27 24 21 15
51 46 44 43 47 49 49 51 52 47 21 6 12 45 45 57 63 63 53 31 28 20 17 7 4 6 9 6 5 7 5 14 11 6 7 4 21 23 23 19 16 17 19 11
47 45 43 43 47 45 46 50 57 56 41 6 10 23 49 51 52 53 56 50 33 18 7 6 7 3 6 2 3 3 10 11 8 8 16 7 9 56 41 22 17 13 8 9
49 48 45 40 36 36 37 34 57 69 52 11 4 16 24 36 42 47 43 46 38 19 14 5 7 9 6 6 7 4 21 14 3 0 25 18 18 25 43 36 22 14 11 11
42 46 43 40 44 44 51 18 15 28 62 17 4 4 11 29 28 24 22 30 14 13 14 8 7 8 16 5 6 4 13 12 7 5 23 6 8 11 25 27 22 14 13 16
43 41 41 44 51 53 64 73 56 25 34 26 9 5 8 33 12 8 14 11 11 6 7 8 5 5 2 4 7 11 21 23 16 13 14 21 25 25 26 27 24 21 20 20
37 34 31 32 44 52 69 60 60 62 37 7 10 15 11 30 11 11 9 7 3 1 2 2 8 4 6 4 7 10 10 9 16 28 33 38 39 42 40 37 35 34 32 25
32 27 14 12 19 49 20 26 18 26 32 29 4 15 9 25 12 2 5 5 5 3 5 10 1 3 11 9 11 11 9 8 19 32 30 32 34 32 30 27 25 23 20 18
28 18 15 12 8 33 22 16 15 15 10 25 19 18 12 23 7 7 5 7 2 6 8 10 2 5 8 8 9 7 10 12 19 25 25 24 24 25 21 19 17 16 15 12
14 7 14 15 10 19 14 11 12 9 12 12 16 14 17 15 13 8 5 6 5 8 8 7 4 3 10 13 9 8 10 14 18 22 21 20 19 18 16 13 10 8 7 6
15 7 8 12 14 9 16 17 7 9 8 15 18 12 16 11 7 6 6 8 9 11 5 8 5 14 12 11 13 11 14 16 16 19 18 17 16 16 13 12 11 9 7 5
13 12 9 8 7 7 3 6 7 1 5 22 50 7 8 9 5 6 10 5 7 5 7 11 4 12 11 12 16 18 20 21 22 24 24 23 22 22 21 18 15 12 8 5
11 9 9 5 7 5 12 16 8 18 3 43 20 10 8 5 8 5 8 6 7 11 10 3 12 14 14 17 22 24 25 27 29 31 31 31 29 28 29 27 25 21 18 15
4 11 5 10 4 6 17 23 6 28 15 16 10 6 7 5 9 8 5 17 15 7 4 13 21 18 18 20 23 26 29 31 34 35 35 37 35 33 34 34 30 28 24 21
10 5 17 14 14 8 7 21 29 30 18 3 4 7 5 7 7 6 7 3 1 15 25 23 21 22 25 27 30 33 35 37 38 39 38 39 38 35 32 31 32 27 24 20
Wind_Direction_850mb
268 261 256 255 273 274 250 245 234 248 200 194 235 221 206 201 184 224 232 239 211 191 179 189 204 207 209 192 149 183 204 174 203 201 218 238 303 249 177 154 215 239 220 256
262 259 259 256 259 242 239 244 243 249 207 218 222 224 229 225 178 207 185 217 215 163 181 206 212 202 205 186 165 167 164 210 16 323 351 345 217 213 207 74 67 231 187 252
268 261 254 260 244 262 224 246 251 225 227 240 229 222 229 224 213 208 215 213 178 211 231 220 245 221 201 204 208 196 168 162 206 233 230 144 201 199 202 209 232 225 238 259
269 265 255 251 245 233 223 232 242 232 200 231 233 244 245 225 224 210 205 232 211 222 214 218 234 240 195 223 224 198 175 216 224 242 237 196 213 207 204 209 227 204 253 245
251 258 254 243 245 232 224 238 227 246 244 273 229 242 234 238 234 210 213 219 216 218 219 211 224 215 206 210 183 197 211 228 229 255 241 206 233 224 221 214 227 231 252 261
259 252 244 249 250 231 232 228 247 267 245 230 249 233 253 238 240 264 256 232 223 224 227 229 238 245 230 225 210 196 172 215 217 238 228 176 262 240 190 214 225 222 239 249
255 259 251 244 245 249 240 228 237 241 253 216 227 239 227 253 196 210 216 229 240 226 221 255 254 244 223 173 205 210 185 217 215 245 146 221 241 256 225 227 237 226 246 256
251 254 245 248 250 248 244 286 228 235 249 230 242 237 236 264 280 278 284 254 237 264 282 209 228 219 215 224 210 198 208 198 219 221 226 268 288 193 157 183 245 234 239 255
245 249 253 242 249 252 253 259 243 235 251 238 229 219 220 231 237 272 208 226 213 205 185 192 195 212 174 196 198 202 197 204 208 175 225 224 246 179 181 126 251 202 214 241
243 250 249 244 247 246 260 261 258 230 237 237 250 211 222 204 200 178 143 178 187 195 192 227 201 226 172 230 215 167 201 203 216 222 239 256 247 197 142 165 245 44 217 230
239 243 247 247 246 246 247 258 258 249 264 257 228 225 213 189 207 207 158 135 201 174 212 202 182 208 200 171 182 170 192 198 210 221 233 241 145 93 181 259 29 45 311 272
236 243 245 246 240 244 246 257 257 273 249 263 238 227 225 221 217 209 179 181 170 181 195 202 147 163 166 185 218 268 197 204 192 202 216 23 350 45 39 46 74 43 42 39
231 237 240 243 242 239 237 247 255 262 290 288 265 233 226 227 228 220 187 220 189 210 208 182 187 201 139 170 228 123 228 178 189 121 195 204 181 130 96 92 80 69 74 70
225 233 238 241 246 241 236 245 247 241 246 246 254 218 212 227 229 229 232 231 203 213 205 214 213 202 184 200 178 156 181 142 159 277 263 246 212 188 153 121 89 78 75 71
220 229 237 245 239 242 244 244 247 247 218 315 299 246 221 220 216 220 221 226 211 179 172 218 208 173 122 2 80 247 187 162 177 227 196 168 186 194 185 179 138 116 127 126
226 229 234 236 238 239 245 255 250 237 233 224 245 240 207 201 200 211 214 216 212 202 171 198 210 187 143 154 187 261 187 186 162 92 169 99 75 174 192 200 183 146 113 120
236 233 233 237 238 238 225 210 227 208 216 212 253 286 214 182 167 177 183 191 184 195 165 181 167 194 188 164 169 15 152 162 177 50 163 112 87 150 184 193 174 162 121 110
232 234 238 239 236 237 241 233 227 250 195 187 191 200 190 170 161 142 162 154 162 148 148 144 153 139 186 177 85 77 95 113 120 100 122 135 128 133 140 149 157 169 154 148
225 233 238 244 230 227 232 236 239 248 236 266 133 178 192 166 138 133 140 150 100 46 149 177 150 158 196 109 88 82 78 99 106 101 119 127 118 114 114 122 124 127 126 132
214 213 206 245 216 227 223 225 220 216 211 200 240 170 166 156 134 128 91 107 157 136 243 128 60 153 101 89 110 135 135 125 152 134 114 123 119 119 122 123 126 132 143 151
185 187 214 239 263 187 193 205 202 206 197 171 159 204 138 176 128 148 171 155 166 135 238 138 226 266 151 142 152 146 141 129 140 154 146 140 135 135 135 131 133 140 149 159
183 191 285 279 237 199 196 199 199 206 206 147 153 169 137 146 144 106 164 122 65 191 152 92 224 153 122 161 160 148 143 138 140 143 143 144 148 150 151 153 158 163 167 170
223 216 219 210 220 239 163 180 228 154 179 155 150 142 131 125 132 73 125 117 198 122 83 203 204 127 141 150 156 144 144 141 138 139 145 147 152 154 157 157 155 149 151 163
201 189 231 232 240 257 296 166 161 116 217 157 151 119 126 128 93 141 118 191 109 95 173 230 133 150 140 138 148 146 143 143 146 144 140 141 140 141 138 135 130 119 120 127
227 179 220 224 273 307 354 342 348 14 197 149 129 82 97 126 114 107 114 118 183 200 213 152 129 141 137 133 138 142 140 138 138 134 135 132 129 129 127 121 116 114 115 115
146 44 14 345 86 24 11 1 5 16 348 168 106 126 137 128 132 131 163 141 198 182 141 127 135 126 122 124 129 130 131 133 131 129 129 127 126 128 127 124 124 123 122 124
42 26 44 11 57 59 43 3 344 355 345 236 119 113 63 86 84 101 9 131 286 123 113 122 126 122 117 120 124 125 128 129 129 128 127 127 124 122 123 126 118 116 113 108